Albany, NY

2:48 PM EST on November 20, 2017 (GMT -0500)
Albany International

Weather History for KALB - February, 2015

Change the Weather History Date:

Friday, February 13, 2015

  Actual Average Record
Temperature  
Mean Temperature 3 °F 25 °F  
Max Temperature 10 °F 34 °F 58 °F (1900)
Min Temperature -4 °F 17 °F -18 °F (1875)
Degree Days  
Heating Degree Days 62 40  
Month to date heating degree days 653 530  
Since 1 July heating degree days 4324 4381  
Cooling Degree Days 0 0  
Month to date cooling degree days 0 0  
Year to date cooling degree days 0 0  
Moisture  
Dew Point -11 °F    
Average Humidity 55    
Maximum Humidity 69    
Minimum Humidity 41    
Precipitation  
Precipitation 0.00 in 0.08 in 0.90 in (1893)
Month to date precipitation 1.81 1.00  
Year to date precipitation 3.98 3.59  
Snow  
Snow 0.00 in 0.50 in 9.00 in (1893)
Month to date snowfall 23.0 6.0  
Since 1 July snowfall 63.0 40.7  
Snow Depth 13.00 in    
Sea Level Pressure  
Sea Level Pressure 30.13 in    
Wind  
Wind Speed 12 mph (WNW)    
Max Wind Speed 23 mph    
Max Gust Speed 30 mph    
Visibility 10 miles    
Events      
T = Trace of Precipitation, MM = Missing Value Source: NWS Daily Summary

Daily Weather History Graph

Daily Weather History Graph

Search for Another Location

Airport or City:

Trip Planner

Search our weather history database for the weather conditions in past years. The results will help you decide how hot, cold, wet, or windy it might be!

Date:

Astronomy

Feb. 13, 2015 Rise Set
Actual Time 6:55 AM EST 5:24 PM EST
Civil Twilight 6:26 AM EST 5:53 PM EST
Nautical Twilight 5:53 AM EST 6:26 PM EST
Astronomical Twilight 5:20 AM EST 6:59 PM EST
Moon 1:58 AM EST (2/13) 12:01 PM EST (2/13)
Length of Visible Light 11h 26m
Length of Day
10h 28m
Waning Crescent, 34% of the Moon is Illuminated
Feb 13
Waning Crescent
Feb 18
New
Feb 25
First Quarter
Mar 5
Full
Mar 13
Last Quarter

Hourly Weather History & Observations

Time (EST) Temp. Windchill Dew Point Humidity Pressure Visibility Wind Dir Wind Speed Gust Speed Precip Events Conditions
12:51 AM 5.0 °F -13.6 °F -8.0 °F 55% 29.99 in 10.0 mi West 16.1 mph - N/A   Partly Cloudy
1:51 AM 3.0 °F -13.3 °F -9.9 °F 55% 30.02 in 10.0 mi West 11.5 mph - N/A   Partly Cloudy
2:51 AM 1.9 °F -16.9 °F -11.0 °F 55% 30.03 in 10.0 mi WNW 15.0 mph 21.9 mph N/A   Scattered Clouds
3:51 AM -0.0 °F -18.7 °F -11.9 °F 57% 30.06 in 10.0 mi WNW 13.8 mph - N/A   Mostly Cloudy
4:51 AM -0.9 °F -17.4 °F -14.1 °F 54% 30.09 in 10.0 mi WNW 10.4 mph - N/A   Partly Cloudy
5:51 AM -2.0 °F -20.5 °F -16.1 °F 51% 30.12 in 10.0 mi WNW 12.7 mph 21.9 mph N/A   Partly Cloudy
6:51 AM -4.0 °F -23.7 °F -16.1 °F 56% 30.15 in 10.0 mi WNW 13.8 mph 24.2 mph N/A   Partly Cloudy
7:51 AM -4.0 °F -25.2 °F -17.0 °F 54% 30.17 in 10.0 mi WNW 16.1 mph 21.9 mph N/A   Clear
8:51 AM -2.0 °F -23.9 °F -16.1 °F 51% 30.18 in 10.0 mi WNW 18.4 mph 24.2 mph N/A   Clear
9:51 AM 1.0 °F -15.8 °F -13.0 °F 52% 30.19 in 10.0 mi WNW 11.5 mph 20.7 mph N/A   Clear
10:51 AM 1.9 °F -18.1 °F -13.0 °F 50% 30.20 in 10.0 mi WNW 17.3 mph 24.2 mph N/A   Clear
11:51 AM 5.0 °F -14.2 °F -11.9 °F 46% 30.19 in 10.0 mi WNW 17.3 mph 23.0 mph N/A   Clear
12:51 PM 6.8 °F -12.4 °F -11.2 °F 44% 30.14 in 10.0 mi WNW 18.4 mph 29.9 mph N/A   Clear
1:51 PM 8.1 °F -9.0 °F -9.9 °F 44% 30.14 in 10.0 mi West 15.0 mph - N/A   Partly Cloudy
2:51 PM 9.0 °F -7.9 °F -11.0 °F 40% 30.14 in 10.0 mi WNW 15.0 mph 26.5 mph N/A   Partly Cloudy
3:51 PM 9.0 °F -10.5 °F -9.9 °F 42% 30.14 in 10.0 mi WNW 20.7 mph - N/A   Partly Cloudy
4:51 PM 8.1 °F -12.2 °F -11.0 °F 42% 30.14 in 10.0 mi WNW 21.9 mph 27.6 mph N/A   Partly Cloudy
5:51 PM 6.1 °F -12.2 °F -9.9 °F 48% 30.15 in 10.0 mi WNW 16.1 mph 23.0 mph N/A   Partly Cloudy
6:51 PM 5.0 °F -8.1 °F -9.0 °F 52% 30.18 in 10.0 mi WNW 8.1 mph - N/A   Partly Cloudy
7:51 PM 6.1 °F - -8.0 °F 53% 30.18 in 10.0 mi Calm Calm - N/A   Partly Cloudy
8:51 PM 1.9 °F -7.6 °F -9.0 °F 60% 30.18 in 10.0 mi SE 4.6 mph - N/A   Partly Cloudy
9:51 PM -0.0 °F - -9.9 °F 63% 30.17 in 10.0 mi Calm Calm - N/A   Scattered Clouds
10:51 PM 1.0 °F - -8.0 °F 66% 30.16 in 10.0 mi Calm Calm - N/A   Overcast
11:51 PM 1.0 °F - -7.1 °F 69% 30.14 in 10.0 mi Calm Calm - N/A   Overcast